Theta_e
311 311 311 312 313 314 316 316 318 320 321 323 324 324 324 325 326 326 328 328 327 328 329 328 328 326 324 324 324 324 324 324 324 323 322 322 321 319 316 311 307 306 305 304 305 305 306 307 307 307 308 308 310 311 311 312 313 314 315 318 319 321 323 325 324 323 324 325 325 326 328 330 331 332 332 332 332 332 332 331 331 331 331 332 331 332
310 311 311 312 312 313 315 316 317 319 321 323 324 325 324 326 327 326 328 329 327 328 329 328 328 328 325 325 326 324 323 323 323 322 320 319 317 315 312 308 306 305 304 303 303 303 304 304 305 306 306 307 308 308 308 309 309 311 312 314 315 317 318 320 321 321 322 322 322 322 323 325 327 329 330 330 330 330 330 330 330 330 331 331 331 331
310 310 310 311 312 312 314 316 318 319 320 322 324 326 326 327 328 328 327 328 328 329 330 329 329 329 326 322 321 321 318 317 316 316 316 313 311 309 307 306 305 304 303 301 301 301 302 302 303 304 304 304 305 305 306 306 306 308 309 310 311 313 315 317 318 319 320 321 322 322 323 324 325 326 328 328 329 329 329 329 330 330 330 330 330 331
311 310 310 311 312 312 313 315 318 320 320 322 323 325 326 327 328 328 327 327 327 327 329 329 329 330 325 319 318 318 315 312 310 309 309 308 306 306 305 304 304 303 302 300 298 298 299 301 301 301 302 302 303 304 304 304 304 305 306 306 307 309 311 313 314 316 317 320 323 324 325 326 326 326 327 328 328 328 328 328 328 329 330 329 330 330
311 310 310 312 312 311 313 315 318 319 320 322 323 323 324 324 326 327 326 326 325 326 328 329 330 328 321 316 316 315 313 311 309 307 306 305 305 304 304 303 302 301 300 299 297 296 296 298 298 299 299 300 301 301 301 301 302 302 303 304 304 305 307 308 309 311 313 316 319 321 323 325 324 324 325 325 324 324 324 324 325 326 326 327 328 328
311 311 311 312 312 312 313 315 317 319 320 321 322 322 321 321 323 324 325 326 327 327 325 326 329 324 316 313 313 312 310 309 307 306 305 304 304 303 303 302 301 300 298 297 295 294 294 295 296 296 297 298 298 298 298 299 299 300 301 302 302 303 304 304 305 307 308 310 312 314 315 316 316 316 315 314 314 315 316 319 322 324 324 325 325 325
311 311 312 312 312 313 313 315 317 318 319 321 322 321 321 321 322 323 324 326 326 325 322 323 327 321 314 313 310 309 308 307 305 305 304 303 302 301 301 300 299 299 298 296 295 293 293 293 294 295 295 296 296 296 296 297 298 298 299 300 300 301 302 302 302 303 305 306 307 307 307 307 308 308 308 307 308 309 310 312 316 319 322 324 325 325
311 312 312 313 313 313 314 315 317 318 319 322 322 320 321 322 322 321 323 323 321 322 322 323 326 321 315 313 309 308 308 306 304 303 302 301 300 299 298 298 297 297 296 295 294 293 292 292 292 293 294 294 295 295 296 296 296 297 297 297 298 298 299 300 300 301 302 303 303 303 303 303 303 304 304 305 306 307 308 309 311 312 315 318 321 323
309 311 313 313 312 312 314 316 317 318 319 321 322 321 321 321 320 319 320 320 319 321 322 322 323 321 317 313 310 309 307 305 303 302 301 300 299 298 297 296 296 295 294 293 292 291 291 292 292 292 293 293 294 294 295 295 295 296 296 296 297 297 297 297 298 298 299 299 300 300 301 301 301 301 301 302 304 305 306 307 309 310 310 312 314 316
308 310 313 315 314 313 314 317 318 318 319 319 320 322 322 320 320 319 317 318 319 322 323 320 318 320 318 313 311 310 307 304 303 301 300 299 298 297 296 295 294 294 293 292 291 291 291 291 292 292 293 293 293 294 294 295 295 295 295 296 296 296 296 296 296 297 297 298 298 298 299 299 299 299 299 300 302 303 303 304 306 307 308 309 310 310
308 308 310 313 313 313 315 317 319 319 319 318 319 321 322 321 321 320 318 320 320 321 322 319 317 319 317 312 311 311 308 304 302 300 299 298 297 296 295 294 294 293 292 291 291 291 291 291 291 292 292 292 293 293 294 294 294 294 295 295 295 295 295 295 296 296 296 296 297 297 297 297 297 298 298 299 300 300 301 302 302 303 304 305 307 308
308 309 310 310 310 312 316 316 317 320 319 318 319 320 320 321 321 320 320 320 319 319 319 316 315 316 314 310 308 308 306 303 301 300 298 298 297 296 295 294 294 293 292 291 291 291 291 291 291 292 292 292 292 293 293 293 293 294 294 294 294 295 295 295 295 295 295 295 295 295 296 296 296 296 297 297 298 298 298 299 299 300 301 302 304 305
309 310 310 310 310 311 316 318 317 319 319 319 320 320 320 321 320 320 321 320 319 320 319 315 314 312 309 307 304 303 302 301 301 299 298 297 296 295 294 294 293 293 292 291 291 291 291 291 291 291 291 291 292 292 292 293 293 293 293 293 293 293 293 294 294 294 294 294 294 294 294 295 295 295 295 295 295 296 296 296 297 297 298 299 299 301
311 311 310 311 312 310 314 318 319 319 317 317 319 319 320 320 319 320 321 320 319 319 318 316 313 310 307 306 303 301 300 300 299 298 297 296 295 295 294 294 293 293 292 292 291 291 290 291 291 291 291 291 291 291 292 292 292 292 292 292 292 292 292 292 293 293 293 293 292 293 293 293 293 293 293 293 294 294 294 294 295 295 296 296 296 297
313 313 311 310 311 310 313 316 318 318 317 317 318 319 319 318 318 319 319 320 319 319 319 316 312 310 307 305 303 301 300 299 298 297 297 296 295 295 294 294 293 293 293 292 291 291 290 290 290 290 290 291 291 291 291 291 291 291 291 291 291 291 291 292 292 292 292 292 291 291 291 291 292 292 292 292 292 292 292 293 293 293 293 294 294 295
312 313 311 310 309 311 313 314 315 318 319 318 319 320 320 318 318 319 318 319 320 319 318 312 308 307 305 303 302 301 300 299 298 297 296 296 295 295 294 294 293 293 293 292 291 291 290 290 289 289 290 290 290 290 291 290 290 290 290 290 290 290 290 291 291 291 291 291 291 291 291 291 290 290 291 291 291 291 291 291 291 291 291 292 292 293
312 312 311 311 311 312 313 313 314 316 319 319 319 319 318 316 317 318 318 318 318 319 315 308 305 304 303 302 301 300 299 298 298 297 296 296 295 295 294 294 293 293 293 292 291 291 290 290 289 289 289 289 289 289 289 289 289 289 289 289 289 289 289 290 289 290 290 290 290 290 290 290 290 290 290 290 290 290 290 290 290 290 290 290 291 291
311 311 311 312 312 312 311 312 313 313 316 319 319 317 316 315 317 318 318 317 316 318 314 308 305 305 305 305 302 299 299 298 297 297 296 296 295 295 294 294 293 293 292 292 292 291 290 290 289 289 288 288 288 288 288 288 288 288 288 288 288 288 288 288 288 288 288 288 289 289 289 289 289 289 289 289 289 289 289 289 289 289 289 290 290 290
310 310 310 311 313 313 311 312 314 313 313 317 318 316 315 317 318 317 318 318 316 316 314 309 307 306 307 306 301 299 299 297 297 297 296 296 295 295 294 294 293 293 292 292 292 291 290 289 289 289 288 288 288 287 287 287 287 287 287 287 286 286 286 286 286 286 287 287 287 287 287 287 287 287 287 287 287 288 288 288 288 288 289 289 289 289
310 312 311 311 312 313 311 311 313 313 313 316 317 316 314 315 317 316 317 319 316 315 315 312 310 309 307 303 301 300 299 297 297 296 296 296 295 295 294 294 293 293 292 292 291 290 289 288 289 288 288 288 287 287 287 286 286 286 286 286 285 285 285 285 285 285 285 285 285 285 285 286 286 286 286 286 286 286 287 287 287 287 287 288 288 288
310 314 311 310 310 312 310 309 309 311 313 315 316 316 315 314 316 315 315 316 314 314 314 314 313 309 303 301 301 300 298 297 297 296 296 295 295 294 294 293 293 292 292 291 290 289 288 288 288 288 288 288 287 287 286 286 286 286 286 286 285 284 284 284 284 284 283 283 283 283 284 284 284 284 284 285 285 285 285 285 285 286 286 286 286 287
310 313 311 310 310 309 308 307 306 308 310 312 313 314 314 314 315 313 313 314 313 313 313 314 314 307 300 299 299 298 297 297 296 296 295 295 294 294 293 293 292 292 291 290 289 288 287 287 287 287 287 287 287 286 286 285 285 286 286 286 285 284 284 283 283 283 283 283 283 283 283 283 283 283 283 283 283 284 284 284 284 284 285 285 285 285
307 310 309 308 309 308 307 306 305 305 308 311 310 311 312 314 314 313 314 314 313 313 313 313 314 306 299 297 297 296 296 296 296 295 295 294 294 293 293 292 292 291 290 290 288 287 287 287 287 287 287 287 286 286 286 285 285 285 286 286 285 284 283 283 282 282 282 282 282 282 282 282 282 282 282 283 283 283 283 283 283 283 284 284 284 284
306 309 309 308 308 307 306 306 306 306 309 310 309 309 311 313 314 313 313 313 312 314 313 311 313 305 297 296 296 295 295 295 295 295 294 294 294 293 293 292 292 291 290 289 288 287 286 286 286 286 286 286 286 286 285 285 285 285 285 285 284 283 283 282 282 282 282 282 282 282 282 282 282 282 282 282 282 282 283 283 283 283 283 283 283 283
306 307 308 310 310 309 308 309 310 309 309 308 307 308 310 312 313 312 312 312 312 314 312 311 312 304 297 296 296 295 295 294 294 295 294 294 293 293 292 292 291 291 289 288 287 286 286 286 286 286 286 286 285 285 284 284 284 285 285 284 283 282 282 282 282 281 281 281 282 282 282 282 282 282 282 282 282 282 282 282 283 283 283 283 283 283
304 304 305 310 312 312 312 311 309 308 307 306 306 307 308 309 311 312 311 312 313 312 312 313 310 301 296 296 296 294 294 294 293 294 294 294 293 292 292 292 291 290 288 287 287 286 286 286 286 285 285 285 285 284 283 284 284 284 284 283 282 282 282 282 281 281 281 281 281 281 281 281 281 281 281 281 281 281 282 282 282 282 283 283 283 283
303 301 302 305 308 308 307 305 304 305 306 308 307 306 306 306 308 310 311 312 311 311 312 311 305 298 295 296 295 294 294 293 292 293 293 293 293 292 292 291 290 289 287 286 286 286 285 285 285 285 285 284 284 283 283 283 284 284 283 282 282 282 282 281 281 281 281 281 281 281 281 281 281 281 281 281 281 281 281 281 282 282 282 282 282 283
304 302 301 301 302 302 302 301 302 303 305 306 306 305 305 305 306 309 310 309 308 310 311 306 302 300 298 295 295 294 294 293 292 291 292 292 293 292 292 291 290 288 287 286 286 285 285 285 285 284 284 284 283 282 282 282 283 283 282 281 281 281 281 281 281 281 281 281 281 280 280 280 280 280 280 280 280 281 281 281 281 281 282 282 282 282
303 302 300 300 300 300 300 300 301 301 301 302 303 304 304 304 305 306 306 305 306 308 308 304 303 303 299 296 295 294 293 292 291 291 291 292 292 292 291 290 289 287 286 286 285 285 285 285 284 284 284 283 282 282 282 282 282 282 281 281 281 281 281 281 281 281 281 281 280 280 280 280 280 280 280 280 280 280 281 281 281 281 281 281 281 281
301 302 300 300 300 299 299 300 300 300 300 300 301 302 302 302 303 303 303 304 304 304 305 304 303 301 298 296 295 293 292 292 291 291 291 291 292 292 290 289 288 286 286 285 285 285 284 284 284 283 283 282 281 282 282 282 281 281 281 281 281 281 280 280 280 280 280 280 280 280 279 279 279 279 279 280 280 280 280 280 280 281 281 281 281 281
301 302 299 298 300 299 298 299 299 299 298 298 299 300 300 301 301 301 302 302 302 302 303 304 302 299 295 294 293 292 291 291 290 290 291 291 292 291 289 288 287 285 285 285 285 284 284 284 283 282 282 281 281 282 281 281 281 281 281 281 280 280 280 280 280 280 280 280 279 279 279 279 279 279 279 279 279 279 279 279 280 280 280 280 280 281
300 302 298 298 301 301 298 297 298 297 297 297 297 298 299 299 300 300 301 301 302 302 302 303 302 298 294 292 291 291 291 290 290 290 290 291 292 290 289 287 286 285 285 285 284 284 284 283 283 282 281 281 281 281 281 281 281 280 280 280 280 280 280 280 280 280 280 279 279 279 279 279 279 279 279 279 279 278 278 278 279 279 279 279 279 279
299 300 299 298 300 300 298 297 297 296 298 299 299 297 297 298 299 299 299 300 301 300 301 302 299 295 292 291 291 290 290 290 290 289 290 291 291 289 288 286 285 285 285 284 284 284 283 283 282 281 281 281 281 281 281 280 280 280 280 280 279 279 279 279 279 279 279 279 279 279 279 279 279 279 279 278 278 278 278 278 278 278 278 278 278 278
297 298 298 297 298 299 299 298 297 297 298 300 298 296 296 297 298 299 298 299 299 297 297 296 295 292 291 291 291 290 290 290 289 289 289 290 290 289 287 285 285 285 284 284 283 283 282 282 281 281 281 281 281 281 280 280 280 280 280 279 279 279 279 279 279 279 279 279 279 279 278 278 278 278 278 278 278 278 278 278 278 278 277 278 278 278
297 297 297 297 297 298 298 297 298 299 300 299 296 295 295 296 297 298 297 297 297 296 294 293 293 292 291 291 291 290 290 289 289 288 288 288 289 288 286 285 285 284 284 283 283 282 282 281 281 281 281 281 280 280 280 280 280 280 279 279 279 279 279 279 279 279 279 279 278 278 278 278 278 278 278 278 278 278 278 278 277 277 277 277 277 277
296 297 297 297 297 297 296 297 299 298 297 295 295 295 295 295 296 297 297 297 296 296 295 293 292 291 291 291 290 289 289 288 288 288 287 288 289 288 286 285 284 284 283 283 282 282 281 281 281 281 281 280 280 280 280 280 279 279 279 279 279 279 279 279 279 279 279 278 278 278 277 277 277 277 277 277 277 277 277 277 277 277 277 277 277 277
295 296 296 296 297 297 297 299 300 298 297 295 294 294 295 295 296 296 297 297 295 294 294 293 291 290 290 289 289 288 288 288 287 287 288 288 288 287 286 285 284 284 283 282 282 281 281 281 281 280 280 280 280 279 279 279 279 279 279 279 279 279 279 279 279 278 278 278 278 277 277 277 277 277 277 276 277 277 277 277 277 277 276 276 277 277
294 295 297 297 297 296 297 299 298 299 301 299 295 294 294 294 295 295 296 296 294 294 294 292 290 289 289 288 288 288 287 288 288 288 287 287 287 286 286 285 284 283 283 282 281 281 281 281 281 280 280 280 279 279 279 279 279 279 279 279 279 279 278 278 278 278 278 278 278 277 277 276 276 276 276 276 276 276 276 276 276 276 276 276 276 276
294 295 295 297 298 296 296 298 298 298 300 298 295 293 293 293 294 294 295 297 295 293 293 291 289 289 289 288 288 287 287 288 289 288 287 287 286 286 285 285 284 283 282 282 281 281 281 281 280 280 280 280 279 279 279 279 279 279 279 278 278 278 278 278 278 278 278 278 278 277 277 276 276 276 276 276 276 276 276 276 276 276 276 276 275 276
295 296 296 296 298 297 297 298 298 297 298 296 294 293 293 293 293 293 298 300 294 291 292 291 289 289 289 288 288 287 287 289 289 287 287 287 286 285 285 284 283 282 282 281 281 281 281 280 280 280 280 280 279 279 279 279 279 279 279 278 278 278 278 278 278 277 277 277 277 277 276 276 276 276 275 275 275 275 275 275 275 275 275 275 275 275
293 294 295 296 297 298 298 298 298 298 297 294 293 292 292 293 294 295 299 298 292 290 292 290 289 289 289 288 288 287 287 288 288 287 286 286 285 285 284 283 283 282 282 281 281 281 280 280 280 280 280 280 279 279 279 279 278 278 278 278 278 278 277 277 277 277 277 277 277 276 276 276 275 275 275 275 275 275 275 275 275 275 275 275 275 275
293 293 294 295 296 297 298 297 297 298 296 293 292 292 292 294 297 297 295 293 290 290 291 290 289 289 288 288 288 287 288 288 287 287 286 285 285 284 284 283 282 282 281 281 281 280 280 280 280 280 280 280 279 279 279 278 278 278 278 278 277 277 277 277 277 276 276 276 276 276 276 275 275 275 275 275 274 274 275 275 274 274 274 274 274 274
294 295 295 295 295 296 296 295 297 299 296 292 292 293 293 295 297 294 291 290 290 290 290 289 289 289 288 288 288 287 287 287 286 286 285 285 284 284 283 283 282 282 281 281 280 280 280 280 280 280 280 279 279 279 278 278 278 278 277 277 277 276 276 276 276 276 276 276 276 276 275 275 275 275 274 274 274 274 274 274 274 274 274 273 273 273
294 295 297 296 295 297 296 295 296 297 294 292 293 294 293 294 293 291 290 290 289 289 289 289 289 288 288 288 287 287 287 286 286 285 285 284 284 284 283 283 282 282 281 281 280 280 280 280 280 280 279 279 279 279 278 278 277 277 277 277 276 276 276 276 276 275 275 275 275 275 275 275 274 274 274 273 273 273 273 273 273 273 273 272 272 272
294 293 293 294 295 296 296 295 293 292 292 292 293 293 292 292 291 290 291 290 289 289 289 288 288 288 288 287 287 286 286 286 285 285 285 284 284 284 283 283 282 281 281 280 280 280 280 280 280 279 279 279 279 278 278 277 277 277 277 276 276 276 275 275 275 275 275 275 274 274 274 274 274 274 273 273 273 273 273 273 273 272 272 272 271 271
291 289 289 292 294 293 293 293 292 291 291 292 292 292 292 292 291 290 290 290 289 289 289 288 288 288 287 287 287 286 286 285 285 285 285 284 284 283 283 282 282 281 281 280 280 280 280 280 279 279 279 279 278 278 278 277 277 276 276 276 275 275 275 275 275 275 274 274 274 274 273 273 273 273 273 272 272 272 272 272 272 272 271 271 271 271
289 289 289 291 292 292 293 293 291 290 291 291 291 292 291 291 291 290 290 290 289 289 288 288 288 287 287 287 286 286 286 285 285 285 284 284 284 283 283 282 282 281 280 280 280 280 280 279 279 279 279 278 278 278 277 277 276 276 276 275 275 275 275 274 274 274 274 274 273 273 273 273 272 272 272 272 272 271 271 271 271 271 271 270 270 270
290 289 290 291 290 291 292 291 289 290 291 291 291 291 291 290 291 290 290 290 289 289 288 288 287 287 287 286 286 285 285 285 284 284 284 283 283 283 283 282 282 281 280 280 280 280 280 279 279 279 278 278 278 277 277 276 276 276 275 275 275 274 274 274 274 274 274 273 273 273 272 272 272 271 271 271 271 271 271 271 270 270 270 270 270 269
289 289 290 291 290 289 290 290 289 289 290 289 290 290 290 290 290 290 290 289 289 289 288 288 287 287 286 286 286 285 285 284 284 284 283 283 283 283 282 282 281 280 280 280 280 279 279 279 279 278 278 278 277 277 276 276 276 275 275 275 274 274 274 274 273 273 273 273 272 272 271 271 271 271 271 271 271 271 270 270 270 270 270 269 269 269
288 289 289 290 290 290 290 290 290 291 291 290 290 290 290 290 290 289 289 289 288 288 288 287 287 286 286 286 285 284 284 284 284 284 283 283 283 283 282 282 281 280 280 280 279 279 279 279 278 278 278 277 277 276 276 276 275 275 275 274 274 273 273 273 273 272 272 272 271 271 271 270 270 270 270 270 270 270 270 270 270 269 269 269 269 268
288 289 289 290 291 291 291 291 291 291 291 291 290 290 290 289 289 289 289 288 288 288 287 287 287 286 285 285 285 284 284 284 284 283 283 283 283 282 282 282 281 280 280 279 279 279 278 278 278 278 277 277 276 276 276 275 275 275 274 274 273 273 273 272 272 272 272 271 271 270 270 270 270 270 270 269 269 269 269 270 270 269 269 269 269 268
Wind_Speed
11 5 6 8 9 12 12 12 11 9 6 6 8 7 6 5 5 6 3 2 8 6 5 7 4 5 4 5 6 10 14 12 13 20 25 25 26 29 32 32 31 30 29 28 28 28 26 25 24 23 22 20 17 17 17 16 14 13 10 7 4 2 2 3 3 3 2 2 2 2 0 1 3 7 8 10 12 12 12 12 12 13 13 14 15 16
9 6 9 11 11 13 14 13 11 10 4 3 5 7 7 6 4 5 5 5 8 6 5 6 4 4 0 5 6 9 11 11 15 23 26 26 27 28 31 31 30 29 28 29 31 30 30 29 28 27 26 24 22 24 24 23 22 19 17 16 14 11 6 2 1 1 1 1 2 0 1 2 1 2 4 5 7 8 9 9 11 12 13 13 13 14
6 8 11 13 12 12 12 12 10 10 5 4 3 5 5 5 2 2 4 5 5 4 5 7 6 3 6 13 14 14 16 19 23 25 26 28 28 27 28 29 29 30 30 33 35 34 33 32 32 31 31 30 29 29 28 28 27 24 23 23 22 19 16 12 8 5 3 2 1 0 1 0 2 2 1 2 3 3 3 4 6 8 12 13 13 14
5 9 14 13 11 12 11 12 11 8 6 4 3 3 3 5 4 2 4 6 4 1 2 7 6 3 8 13 13 14 21 27 29 31 32 33 32 30 30 29 30 30 31 33 37 38 37 35 35 34 35 34 32 31 30 31 30 29 28 27 26 24 22 19 16 13 10 5 2 2 2 2 3 3 4 5 5 3 3 3 3 5 8 10 11 13
6 8 12 12 11 13 11 12 12 7 5 5 4 3 3 5 4 2 5 8 5 3 2 7 5 2 7 12 10 11 20 26 26 31 32 31 31 31 32 32 31 31 30 32 35 39 40 39 38 38 37 35 34 35 35 34 34 32 30 29 29 27 25 24 21 19 15 10 5 3 3 4 3 3 4 4 3 4 5 5 5 6 8 9 9 10
8 9 11 12 11 13 11 10 12 8 5 5 5 6 6 7 6 6 7 8 6 1 1 4 4 3 7 12 10 7 13 18 21 27 27 27 28 28 29 29 29 30 31 33 35 38 40 40 39 38 37 36 37 38 36 35 35 33 31 30 30 29 28 27 26 23 20 17 15 12 9 8 7 8 9 10 10 11 10 8 6 4 6 8 8 8
4 9 10 12 13 14 11 10 12 10 6 4 5 9 9 8 9 8 6 5 4 2 1 1 2 4 5 9 9 7 11 14 16 21 23 25 26 27 27 26 26 27 28 31 33 36 39 39 39 39 37 37 37 37 35 34 34 33 32 31 30 30 29 29 28 26 24 24 23 22 22 21 19 19 19 18 16 15 14 11 7 5 4 5 6 7
1 6 10 13 13 12 9 8 12 11 5 3 6 10 10 9 10 9 7 4 1 2 2 4 2 5 4 6 6 6 11 13 13 15 19 23 25 26 26 26 26 26 26 29 31 34 37 38 39 39 37 37 36 35 33 33 34 33 33 32 31 31 30 30 29 28 27 26 26 25 25 25 24 23 22 20 17 15 13 11 10 8 6 5 6 7
3 4 11 14 12 10 8 7 12 12 4 4 8 9 8 9 10 9 8 5 1 1 1 4 3 4 4 5 4 3 10 13 12 13 15 20 23 23 25 25 25 26 26 30 33 35 37 37 38 37 36 36 35 34 33 33 33 32 32 31 31 31 31 31 30 29 28 28 27 26 25 25 25 24 23 21 18 16 15 14 12 10 9 8 8 9
1 6 5 8 8 7 7 8 12 10 4 6 8 6 7 8 9 8 6 5 3 2 2 1 3 3 4 4 2 2 7 10 10 10 13 18 21 21 22 23 23 25 28 32 34 35 36 36 36 35 35 35 34 34 33 32 32 31 31 30 30 31 31 31 30 29 29 28 27 27 26 26 25 24 23 21 20 20 19 18 17 15 14 13 11 11
6 7 1 4 1 4 5 8 11 9 10 11 8 6 7 5 4 5 3 3 4 1 2 4 2 2 4 3 3 3 6 8 8 9 12 16 18 19 20 20 21 23 27 32 33 34 34 34 34 33 34 34 34 33 32 32 32 31 31 30 30 31 31 30 30 30 29 29 28 27 27 26 26 25 24 23 23 23 22 22 22 21 19 17 15 13
3 3 3 3 4 5 5 6 7 10 14 12 5 5 6 3 3 3 1 0 3 1 3 6 6 6 4 3 4 5 8 9 10 10 11 14 16 17 17 18 19 20 25 29 30 31 32 32 32 33 33 33 33 33 33 33 32 32 32 31 31 31 31 31 30 30 30 29 29 29 28 27 27 27 26 26 26 25 25 25 24 24 22 21 19 17
4 5 5 6 7 8 1 6 5 6 9 7 5 6 4 2 1 1 1 1 2 2 4 8 7 7 5 3 5 8 10 11 14 13 13 15 15 15 16 17 18 20 23 26 26 28 30 31 32 33 33 33 33 33 32 32 32 32 32 32 32 33 33 32 31 31 31 31 31 30 30 29 29 29 28 28 28 28 27 27 26 26 26 25 24 22
2 2 9 9 5 8 5 5 4 4 5 5 5 4 3 4 3 2 3 3 2 2 4 6 7 6 4 3 4 8 11 14 18 17 16 16 15 15 15 15 17 19 21 22 24 26 28 29 30 31 32 32 32 32 32 32 32 32 32 32 33 33 33 33 33 32 32 32 33 32 32 31 30 30 30 30 30 30 30 29 29 29 28 28 27 26
2 2 7 7 4 8 5 4 1 4 6 4 2 2 2 3 2 3 3 2 3 3 3 2 4 3 5 4 5 9 13 16 17 17 16 16 14 14 14 14 16 17 18 20 22 24 25 26 28 29 31 31 31 32 31 32 32 32 33 33 32 33 33 32 32 32 33 33 33 33 33 33 32 32 32 31 31 31 31 31 31 30 30 30 29 29
4 4 4 4 6 6 5 5 5 4 5 1 2 1 2 1 1 2 1 4 7 4 3 3 3 3 5 6 7 10 13 14 15 15 14 14 13 13 13 13 14 14 16 18 20 21 23 25 27 28 29 30 30 31 32 32 33 33 34 34 33 33 33 32 32 32 32 32 32 32 32 32 33 33 32 32 32 32 32 32 32 31 31 31 31 30
3 3 3 4 2 5 10 8 7 5 1 1 1 3 1 2 2 3 1 4 7 4 3 4 3 4 5 5 6 9 10 10 12 12 12 13 11 12 12 12 12 13 14 15 17 19 20 22 24 26 27 29 30 31 32 33 34 34 35 35 35 35 34 34 34 33 33 32 32 32 32 32 32 32 32 32 33 33 33 32 32 32 32 32 32 32
2 4 3 5 5 8 12 12 11 10 5 3 3 1 2 2 1 2 2 2 3 3 3 3 6 7 4 3 6 9 9 9 9 10 11 12 11 10 10 10 11 11 12 13 14 17 19 20 21 23 24 26 28 30 32 32 33 34 35 36 37 37 37 37 36 35 34 34 33 33 33 33 32 32 32 31 31 32 32 32 32 33 33 33 34 34
3 4 4 7 5 4 8 9 8 10 10 4 4 1 0 2 2 1 2 2 2 3 3 3 6 5 3 4 8 9 9 10 9 8 9 9 9 9 9 9 9 10 11 12 13 15 17 18 19 21 22 24 26 28 29 31 32 33 33 35 36 37 38 38 38 37 36 35 35 34 33 33 33 32 32 32 32 32 32 32 32 32 33 33 34 34
2 3 1 6 6 2 4 6 3 5 8 4 2 2 2 2 1 0 1 2 2 3 3 4 5 2 1 3 10 11 9 10 9 7 8 9 9 8 8 8 8 9 10 11 12 13 15 16 17 18 20 21 23 25 27 28 30 31 31 33 35 36 37 37 38 38 38 37 37 36 35 35 34 33 33 32 32 32 32 33 33 33 33 33 33 34
3 2 3 4 7 4 3 4 2 2 4 4 4 4 3 2 1 1 2 2 2 2 3 4 3 1 1 1 8 11 8 8 9 7 8 10 9 8 8 8 8 9 9 10 11 12 14 15 15 17 18 18 20 23 24 26 27 27 28 29 32 35 35 37 38 38 38 38 38 37 37 37 37 36 36 35 34 33 33 33 33 33 33 33 34 34
3 3 3 3 6 5 3 1 1 2 3 3 4 2 2 3 2 3 2 2 2 2 3 4 2 1 1 2 5 8 7 7 10 10 10 10 10 8 8 8 8 8 8 9 9 11 14 14 14 16 17 17 19 21 23 24 24 24 24 25 29 33 33 35 37 38 38 39 38 38 38 38 38 37 38 38 37 36 36 35 35 34 34 34 34 34
4 4 5 5 4 2 1 0 1 1 3 2 4 4 3 2 3 3 2 1 2 2 2 3 2 1 1 4 7 8 8 10 10 11 11 10 9 8 7 7 7 7 7 7 8 10 13 13 13 15 16 16 18 20 21 23 23 23 22 23 28 32 32 34 36 37 39 40 39 39 39 38 38 38 38 38 37 38 38 38 37 37 37 37 36 35
6 2 4 4 2 1 1 2 2 1 1 3 4 5 4 2 2 3 2 1 1 1 1 1 2 1 1 5 10 11 11 10 9 10 11 11 10 9 8 7 6 6 6 6 8 10 12 13 13 15 16 17 18 19 21 22 22 22 21 23 28 31 32 34 36 37 39 41 40 40 39 39 38 38 38 37 37 38 39 39 39 39 38 38 38 37
5 2 2 3 3 3 3 3 5 4 4 4 2 4 5 4 4 3 1 2 1 1 2 3 2 1 2 5 9 11 10 10 9 9 10 11 10 9 8 6 5 5 4 6 8 11 12 12 13 15 15 16 18 19 21 22 22 22 22 24 29 31 32 34 36 38 40 41 41 40 39 39 38 38 38 37 37 39 40 40 40 39 39 39 38 38
3 2 2 3 4 2 2 2 1 2 2 2 2 4 5 6 5 3 2 3 1 2 3 2 1 2 4 5 6 8 8 8 9 10 9 9 9 9 8 6 5 4 3 5 7 10 11 11 12 14 14 16 18 20 22 22 22 22 23 27 30 31 32 35 37 39 41 41 41 40 39 38 38 38 37 37 39 40 40 40 39 39 39 38 39 38
3 3 5 5 5 4 3 2 1 2 1 2 2 4 5 5 5 3 2 2 1 1 3 1 5 7 7 7 8 8 7 7 8 10 10 9 9 8 8 7 5 3 3 5 8 10 11 11 13 14 14 16 19 21 22 23 22 23 26 29 31 32 33 36 38 39 41 40 40 39 38 37 37 37 37 38 40 40 39 39 39 38 38 37 37 37
4 4 6 6 8 6 4 4 4 4 4 4 3 4 5 5 5 4 4 1 0 1 1 1 6 9 9 10 10 8 7 6 8 9 9 9 9 9 8 7 4 2 3 6 8 10 10 11 13 14 15 18 21 22 23 23 22 24 28 31 31 32 34 36 38 39 40 39 39 37 36 35 36 36 37 38 38 38 38 38 38 38 37 37 36 36
4 3 4 3 7 7 6 6 6 6 5 4 4 4 5 5 5 4 3 1 2 3 3 3 4 5 8 11 10 8 8 8 8 9 9 9 10 10 9 6 3 1 5 7 9 10 11 12 14 15 17 20 23 24 24 24 24 26 29 30 30 32 34 36 37 38 38 37 36 35 34 34 35 35 36 37 37 37 37 36 36 36 35 35 35 35
3 2 3 3 5 6 6 6 5 6 5 4 3 3 4 4 3 3 2 3 5 3 4 5 5 3 4 8 8 10 11 10 8 8 9 10 10 10 9 5 2 2 6 7 9 11 12 13 15 17 19 22 23 23 23 24 25 27 29 29 30 32 34 35 35 36 35 35 33 32 32 33 34 34 35 36 36 36 36 35 35 35 34 34 34 34
6 2 2 3 3 4 6 5 5 5 4 2 3 3 1 1 1 1 0 1 2 1 3 7 7 3 3 8 12 13 12 9 8 9 9 10 10 10 8 4 1 3 6 7 10 12 12 14 17 19 21 22 23 22 23 24 26 27 28 29 30 32 33 33 34 33 33 32 31 30 31 32 33 34 34 34 35 35 35 35 35 35 34 34 34 34
5 2 2 2 3 2 5 5 5 5 3 3 5 4 2 2 1 1 0 1 1 2 3 5 5 2 4 11 12 12 12 9 8 8 8 9 11 10 7 4 2 3 5 7 10 11 12 14 17 19 21 22 22 22 23 24 26 27 28 29 30 31 32 32 32 31 31 30 29 30 31 32 32 33 33 34 35 35 36 36 36 36 36 36 36 35
2 1 1 3 3 2 4 5 5 5 4 4 3 2 3 3 3 2 1 1 1 2 3 4 3 3 8 11 9 8 10 9 8 7 7 9 12 11 9 6 2 3 5 7 9 9 11 14 17 18 20 20 21 22 23 25 26 27 28 29 30 30 30 30 29 29 29 28 28 29 30 31 32 33 33 34 35 36 36 37 37 37 38 38 38 38
2 2 2 2 2 1 5 5 4 4 2 3 4 2 3 2 3 3 1 2 3 3 3 4 4 5 9 10 8 9 10 10 8 7 7 9 12 13 10 6 2 3 6 8 9 10 12 15 17 18 19 20 21 22 23 24 25 27 27 28 28 29 29 28 28 28 28 28 28 30 31 32 32 33 34 34 35 36 37 37 38 38 38 39 39 39
3 4 2 1 2 0 3 4 5 1 3 4 3 1 3 2 4 4 1 3 6 6 6 7 6 8 11 11 11 12 12 9 7 7 8 11 14 15 11 7 4 4 7 9 10 12 14 16 17 18 19 20 22 22 23 24 25 27 27 27 28 29 28 28 27 28 28 28 30 31 32 33 33 34 34 35 35 36 37 37 38 39 39 40 40 40
3 2 1 1 2 0 1 2 1 3 3 1 1 1 2 2 3 2 1 4 7 7 8 8 7 9 12 12 11 11 9 6 7 10 10 13 17 16 12 8 5 6 9 11 11 13 14 16 17 18 19 20 21 22 23 24 25 27 27 27 28 28 27 27 28 28 29 29 31 32 32 33 34 34 35 36 36 37 37 38 39 39 40 40 40 40
4 2 1 2 1 1 1 1 3 1 3 2 1 2 1 1 2 2 1 4 8 10 10 9 8 10 12 12 10 9 6 4 8 11 13 17 19 16 13 10 7 10 12 12 12 13 14 16 16 17 19 20 21 21 22 24 26 27 28 28 28 28 27 28 28 29 30 31 32 32 33 34 34 35 35 36 37 37 38 38 39 39 39 40 41 41
4 2 2 2 1 2 2 1 2 2 3 4 3 3 4 5 6 6 2 3 7 14 15 12 10 12 13 13 12 9 5 3 4 6 15 20 18 15 12 11 11 13 13 13 13 14 14 15 16 17 19 20 20 21 23 26 28 28 29 28 28 28 28 28 29 30 30 31 32 33 33 34 34 35 36 36 37 37 38 38 39 39 39 39 40 41
4 3 2 2 1 2 2 1 2 3 5 4 5 5 6 7 6 5 2 4 6 14 18 16 14 15 16 16 15 11 6 3 1 9 21 21 15 13 12 12 13 14 13 13 14 14 14 15 16 17 19 20 22 23 25 27 29 29 29 28 28 29 29 29 29 30 31 32 32 32 33 34 34 35 36 37 37 37 38 39 39 39 39 39 39 39
4 3 1 1 1 2 2 2 3 3 4 4 7 9 10 9 6 5 3 6 6 14 19 19 18 18 18 18 16 11 6 5 3 10 21 20 14 13 13 13 13 14 14 13 14 14 14 15 17 18 20 22 23 25 26 27 29 29 29 29 29 29 29 29 30 30 31 32 32 32 33 33 34 35 36 36 37 38 38 39 39 39 39 39 39 39
3 3 0 1 1 3 4 3 3 3 3 6 10 15 15 8 5 3 2 6 12 17 17 19 20 20 19 20 18 13 11 10 6 8 14 14 12 13 14 14 14 14 14 13 14 14 14 16 18 19 21 23 25 26 26 27 29 29 28 29 28 28 29 29 29 30 31 32 32 32 33 33 34 35 36 36 37 38 39 39 39 39 39 39 39 38
1 1 0 1 1 3 3 2 3 5 4 12 16 18 16 7 1 4 4 10 20 22 18 19 20 19 20 21 20 17 14 13 11 11 12 14 15 15 15 15 14 14 14 14 14 15 16 18 19 20 22 23 25 26 27 28 29 28 28 28 28 28 29 29 30 30 31 32 33 33 34 34 35 36 37 37 37 38 39 39 39 39 39 39 39 38
3 2 2 3 3 2 1 1 2 6 5 20 21 11 9 5 4 9 14 15 19 22 20 20 21 19 20 20 20 19 17 15 15 16 16 16 16 15 15 15 15 15 15 15 15 17 18 19 21 21 23 24 25 26 27 28 28 28 28 29 28 28 29 30 30 31 32 32 33 34 35 36 36 37 37 38 38 38 39 39 39 39 38 38 38 38
3 4 3 3 3 4 3 4 4 3 11 27 21 5 9 12 8 12 18 16 16 19 20 21 20 19 19 19 18 18 18 17 17 17 16 16 16 16 16 16 16 17 17 16 17 18 19 21 22 23 24 25 26 27 27 27 28 29 29 29 29 30 31 31 31 32 33 34 35 36 36 37 37 38 38 38 38 38 39 39 39 39 38 37 36 36
4 3 3 2 3 3 4 7 4 4 15 30 23 6 8 16 13 10 13 14 16 18 18 19 19 19 18 18 18 18 18 18 17 17 16 16 16 16 17 17 18 18 18 18 18 19 20 22 23 24 25 26 27 28 28 27 28 29 29 29 29 30 31 32 33 34 35 36 37 37 38 38 38 38 37 37 37 38 38 39 39 38 38 36 35 34
4 2 3 1 3 5 10 15 12 7 14 27 26 15 10 14 16 15 14 14 14 15 16 17 17 17 17 18 18 19 19 18 17 17 16 16 16 17 18 19 19 19 18 18 19 20 21 23 24 25 26 27 28 28 28 27 27 28 29 29 30 31 32 33 35 36 36 37 38 38 38 38 38 38 37 37 36 37 37 37 38 38 37 36 34 33
6 7 5 2 2 2 5 8 8 10 16 23 26 24 20 17 18 19 18 17 16 15 15 15 15 15 16 18 18 19 19 18 18 18 18 18 19 20 20 20 20 19 19 19 20 22 23 24 25 26 27 28 29 28 28 27 27 27 29 30 30 31 33 35 36 38 38 38 38 38 38 38 38 38 37 37 36 36 36 36 36 36 36 35 34 33
5 8 6 4 5 6 5 5 3 5 12 19 22 24 25 24 23 23 22 20 18 17 17 16 16 17 18 19 19 20 19 19 20 21 20 20 20 19 20 19 19 19 20 21 22 23 23 24 25 26 28 29 29 29 28 27 27 27 29 31 31 33 35 36 37 38 38 38 38 37 37 37 37 37 37 37 37 36 37 36 36 36 35 34 33 32
6 6 5 4 5 6 11 14 11 7 10 17 24 26 27 27 26 25 24 24 23 22 21 19 18 19 20 21 21 20 20 20 21 20 20 20 19 19 20 20 20 20 21 23 24 24 24 25 26 27 29 30 29 29 28 28 28 28 30 31 33 34 36 37 38 38 37 37 36 36 36 36 36 36 37 37 37 37 37 36 36 36 36 34 31 30
8 5 4 3 3 6 9 11 11 8 9 15 21 24 26 27 26 26 25 25 26 26 25 23 22 21 22 22 22 21 21 21 21 20 20 21 21 21 22 21 21 22 23 23 24 24 24 25 27 28 30 30 29 29 29 29 29 30 31 33 34 35 37 37 37 37 36 35 35 35 35 35 36 36 36 37 38 38 38 37 35 35 35 34 32 30
19 15 11 9 9 11 10 10 14 15 13 13 13 15 17 20 23 25 26 26 26 26 25 24 23 23 23 23 23 22 22 22 21 21 22 23 23 23 22 23 23 23 24 24 24 24 25 26 28 29 30 30 29 29 29 30 31 32 33 34 35 35 36 36 36 36 35 35 34 34 34 35 35 35 36 36 37 38 39 39 38 36 35 34 33 32
Wind_Direction
180 187 217 209 210 197 193 201 208 236 240 175 163 155 162 179 193 195 179 165 166 161 200 180 176 223 173 128 140 134 124 115 108 95 88 89 85 84 85 81 76 70 65 65 66 69 72 73 75 75 74 74 73 72 70 67 64 68 73 81 89 94 160 183 160 135 110 109 106 92 104 296 329 336 338 336 338 342 344 345 340 331 322 311 302 294
174 200 219 210 215 201 192 197 207 238 249 97 149 164 170 184 178 186 170 153 171 181 202 170 159 232 212 65 53 70 73 56 76 91 91 90 86 85 85 81 78 72 67 68 67 68 72 74 75 76 75 73 71 70 69 66 63 63 64 63 61 56 60 81 117 224 306 46 67 61 237 211 205 336 342 334 339 340 340 353 359 352 341 330 322 313
182 213 221 209 214 210 195 189 200 229 208 110 148 170 164 172 121 107 140 144 173 198 194 171 175 191 62 52 42 52 66 59 66 82 87 88 84 79 79 76 74 71 66 66 67 68 71 73 74 75 74 72 72 72 70 68 65 63 63 62 60 58 58 62 67 75 71 66 79 188 251 241 162 155 183 227 240 266 294 340 3 2 1 353 341 334
201 215 217 206 206 210 199 184 192 221 211 165 145 147 159 167 158 134 145 149 154 211 165 159 168 140 79 66 48 53 77 76 72 75 76 78 77 73 73 73 70 68 64 64 66 67 69 72 72 72 72 71 71 71 69 67 64 63 64 63 62 60 59 60 64 69 71 81 135 186 197 199 198 191 202 212 216 233 273 297 304 320 342 348 344 342
241 233 212 202 205 207 198 183 187 201 203 184 150 126 143 156 147 103 135 140 121 20 49 124 129 89 68 70 55 47 73 79 76 75 71 71 74 73 72 71 69 67 65 64 64 65 67 68 69 69 69 70 69 67 66 66 64 63 64 64 63 62 61 61 60 63 66 75 92 123 178 193 206 222 239 246 277 318 320 313 308 298 299 306 313 318
262 261 214 199 205 203 198 184 185 192 187 185 162 143 146 140 113 106 132 137 125 56 340 139 138 88 52 62 61 44 65 70 68 71 70 68 70 70 69 68 68 67 65 66 65 65 66 66 66 67 67 67 67 64 63 64 64 63 62 63 62 61 61 60 58 57 59 59 59 60 61 53 41 31 22 17 12 10 8 0 351 326 305 301 298 297
271 268 222 199 198 196 198 186 180 188 178 175 159 140 146 141 122 126 136 136 144 145 335 286 144 110 61 59 64 62 70 67 63 66 67 68 67 65 66 65 65 64 62 64 64 63 64 63 63 63 62 63 63 62 61 62 61 60 59 59 59 58 57 57 55 54 55 55 55 55 54 51 46 43 38 33 26 22 21 16 7 356 337 315 301 299
320 274 223 196 191 190 197 182 176 188 180 153 147 133 139 136 120 116 103 89 121 110 39 341 68 112 91 78 84 83 78 69 59 62 63 65 66 66 65 63 63 62 60 61 62 62 61 60 60 60 59 60 60 59 58 57 57 55 54 53 54 54 53 52 51 51 51 52 53 53 53 50 48 45 40 34 29 24 20 16 12 7 2 342 318 311
53 270 217 192 185 184 193 177 168 177 163 144 155 137 129 123 116 110 97 96 54 61 78 345 19 102 104 95 102 84 83 78 66 64 65 65 66 67 66 64 63 63 63 64 64 63 61 60 59 58 57 57 56 55 54 53 52 51 50 49 49 49 48 46 46 46 47 46 46 46 45 44 43 41 37 32 28 24 19 17 14 7 0 349 331 320
341 265 231 177 177 177 176 166 167 171 130 128 147 127 108 109 116 116 108 120 104 51 133 60 7 93 107 92 89 73 84 90 85 74 70 69 69 69 68 67 66 66 67 66 64 62 60 58 57 55 55 54 51 50 50 49 47 46 45 43 43 43 41 40 39 39 40 39 39 38 36 35 33 31 28 25 23 20 17 14 13 10 4 357 346 335
255 266 2 90 163 247 209 162 158 152 116 112 122 110 103 90 87 106 114 129 111 57 134 118 58 65 93 58 34 76 92 97 101 92 81 76 73 71 70 69 68 68 67 65 63 61 59 57 54 53 52 50 48 46 45 44 41 40 38 36 36 37 35 33 32 31 31 31 30 29 28 26 24 21 18 15 15 13 11 9 8 7 4 0 355 346
330 353 45 31 353 308 235 149 126 134 120 109 123 127 107 67 25 59 39 58 110 119 129 112 79 59 84 57 21 65 96 101 100 97 91 83 77 74 72 71 70 68 66 63 59 57 54 52 50 49 47 45 44 42 40 39 36 34 33 30 29 29 27 26 25 24 24 22 22 21 19 18 16 14 11 10 8 6 5 4 2 0 358 357 354 347
21 39 21 339 358 3 18 131 110 129 120 105 141 143 112 106 100 91 139 115 80 71 125 126 92 61 71 65 43 61 78 88 91 93 94 90 85 80 76 73 70 67 64 59 55 52 49 47 45 43 42 40 38 37 35 34 32 30 28 25 24 23 21 19 17 17 16 15 14 13 11 10 9 7 6 4 3 1 359 358 356 355 353 352 351 349
8 46 12 358 345 343 0 126 135 150 134 116 150 162 135 131 133 150 158 145 81 65 146 142 95 86 111 79 67 79 80 85 90 91 93 92 90 86 81 76 69 64 60 56 52 49 45 43 41 39 38 36 34 33 31 29 28 25 24 21 20 18 16 13 12 11 10 9 8 6 5 4 2 1 0 358 357 355 353 352 351 350 348 347 347 346
64 90 8 3 299 309 4 70 82 139 132 131 203 233 123 127 130 149 161 148 119 108 151 147 59 100 140 109 99 102 95 93 94 95 96 92 90 87 81 74 68 62 58 53 48 45 42 39 37 34 33 31 30 28 26 25 23 21 20 17 15 14 12 9 8 6 5 5 4 2 0 359 358 357 355 354 352 350 349 347 346 344 343 342 341 340
82 81 326 299 274 308 40 35 1 80 104 180 264 0 48 239 172 129 148 134 128 110 85 72 40 71 103 103 115 111 103 101 100 101 99 93 89 86 78 70 66 62 57 52 46 42 38 35 32 30 27 26 25 23 21 20 18 16 15 13 12 10 8 6 5 3 2 1 359 358 356 356 355 353 351 350 349 347 346 344 342 341 339 338 335 333
98 80 301 277 303 34 65 56 28 53 88 253 54 46 29 226 157 106 58 111 121 109 89 95 96 110 104 109 136 126 113 111 108 105 101 96 92 83 76 71 66 63 57 51 45 41 35 31 29 26 24 21 20 19 17 15 13 12 11 10 9 7 6 5 3 2 0 358 357 355 354 353 351 350 349 347 346 344 343 341 339 337 335 334 333 330
66 84 4 6 44 50 62 64 46 33 27 83 105 304 296 337 33 95 90 90 101 90 95 118 135 152 166 149 148 143 131 126 121 114 110 105 99 89 82 77 69 64 59 50 44 39 33 29 25 22 20 19 17 16 14 12 10 9 9 8 8 6 5 4 3 1 360 358 357 355 353 352 350 349 347 345 343 341 339 338 337 335 334 332 331 329
29 77 15 0 30 42 39 46 43 23 17 58 142 216 48 60 11 27 97 123 145 113 108 126 136 155 200 151 151 158 146 138 133 124 122 117 110 106 95 84 75 66 59 51 44 37 32 27 22 18 16 15 14 13 11 10 8 6 5 5 6 6 5 4 2 -0 359 357 356 355 353 351 349 348 346 344 342 340 338 336 334 333 332 330 329 328
308 104 77 344 5 24 27 28 31 11 357 354 57 32 48 112 121 58 85 123 136 124 121 134 144 165 266 157 155 157 150 144 143 134 129 124 115 110 101 91 80 68 62 54 46 39 30 25 20 14 13 12 10 10 9 8 6 4 1 1 3 3 3 3 1 360 359 358 356 355 353 351 349 347 345 343 341 339 338 336 335 333 331 329 329 327
310 77 101 5 13 32 57 31 5 6 352 351 27 27 5 8 108 88 38 62 99 104 120 130 150 169 335 145 143 140 139 140 138 133 128 122 115 109 101 95 85 75 68 57 47 38 26 22 18 13 11 9 7 7 7 6 5 2 358 357 358 -0 1 1 1 0 359 357 356 355 353 352 351 348 346 344 342 340 339 336 335 334 331 330 329 328
356 47 75 50 35 47 71 23 324 344 336 11 48 29 351 9 54 77 38 16 62 90 129 132 148 192 354 38 96 110 112 117 124 125 122 120 119 115 108 101 92 82 72 58 46 32 21 18 14 10 10 7 4 4 4 4 3 1 356 353 353 356 358 358 358 358 357 355 354 353 352 350 349 348 346 344 343 342 341 339 337 335 333 331 330 329
3 57 69 68 59 70 122 295 42 317 301 22 52 13 359 33 47 75 110 317 8 40 95 121 145 192 54 81 91 101 108 117 129 134 131 131 133 130 121 112 102 90 74 59 43 23 15 16 11 7 8 6 3 1 1 2 2 1 357 350 351 354 354 354 354 354 354 353 352 351 349 348 346 345 344 343 342 341 341 339 338 337 335 334 332 331
1 52 75 83 76 27 351 341 354 323 339 52 34 9 21 33 37 81 131 101 44 46 63 112 180 216 120 105 110 119 124 127 136 141 140 141 143 141 133 124 115 96 73 53 33 15 11 11 6 5 7 5 2 359 358 358 358 359 356 350 350 352 351 350 350 351 351 350 349 349 347 346 344 344 343 342 340 339 338 337 337 336 336 334 333 332
1 26 52 98 97 28 14 1 1 4 41 58 12 5 29 31 49 72 39 48 52 341 89 130 203 216 156 132 127 137 145 144 143 144 146 145 145 146 141 133 125 104 68 39 19 7 6 6 3 4 4 0 359 357 356 356 356 356 353 350 349 349 348 348 347 348 348 347 347 346 345 344 343 342 343 341 338 337 337 336 335 335 334 333 332 332
21 31 12 83 116 103 104 125 55 2 35 66 26 21 27 24 38 49 33 70 72 351 49 118 185 134 142 154 157 161 159 152 151 153 154 150 148 149 146 140 133 112 65 29 10 0 2 3 0 1 360 356 355 355 354 355 355 353 348 347 348 347 346 346 345 346 346 345 345 345 344 342 341 340 340 338 337 337 336 335 335 334 334 333 332 331
89 57 19 49 79 100 105 106 256 309 36 105 78 51 44 21 12 34 68 95 146 24 9 35 130 140 172 188 179 175 169 157 156 158 158 156 153 153 151 148 139 109 50 14 0 356 359 359 355 355 355 351 351 352 354 355 354 349 345 345 347 346 345 344 343 344 344 343 343 343 342 341 339 338 338 337 336 336 336 336 335 335 334 334 333 332
122 48 12 41 56 64 74 43 359 6 50 75 70 62 56 27 8 41 81 108 195 103 321 280 130 147 183 190 178 176 174 156 151 159 164 162 161 162 159 154 145 105 19 358 352 353 355 353 352 351 348 347 348 350 352 353 350 344 342 344 345 344 343 342 341 342 342 341 342 342 340 339 337 336 336 336 336 336 335 336 336 335 335 335 335 335
110 53 2 63 66 52 44 28 18 34 43 29 35 49 47 37 24 39 73 51 43 102 180 187 146 155 175 177 174 168 161 152 152 164 169 163 163 167 164 157 146 53 359 349 347 350 350 347 347 346 344 343 347 348 349 348 345 341 342 343 341 340 341 340 340 340 341 341 341 341 339 337 336 336 336 336 336 336 336 336 335 335 335 335 335 335
63 76 13 57 85 57 29 19 22 35 29 5 17 31 34 44 35 27 37 36 49 97 145 125 92 67 133 153 150 147 150 152 156 166 167 165 167 166 163 160 151 355 346 342 341 344 344 342 341 341 341 342 345 346 345 343 340 340 340 339 338 338 339 339 339 340 341 342 342 341 339 338 337 337 337 338 338 338 338 337 336 336 335 334 334 334
27 70 344 12 76 43 13 12 13 20 23 342 317 313 6 84 16 357 31 49 67 147 155 123 111 71 93 120 123 136 151 157 168 176 171 168 170 167 165 169 187 335 335 334 338 339 336 335 336 338 339 341 342 342 340 338 338 338 337 336 336 337 337 338 339 340 342 343 343 341 340 339 338 338 339 340 339 339 339 339 339 338 337 335 334 333
32 61 312 16 70 22 355 3 351 343 351 317 294 286 266 222 195 123 197 214 159 172 154 138 150 185 142 128 127 145 161 168 177 178 169 168 170 170 176 190 239 322 327 326 331 333 328 328 332 335 337 338 339 337 335 335 336 335 334 334 335 336 336 337 339 340 342 343 342 342 340 339 340 340 341 341 341 341 342 341 341 341 339 338 337 336
53 74 17 41 67 329 323 334 332 343 1 331 295 292 289 248 159 110 319 291 100 112 135 162 198 179 146 141 141 157 171 175 177 174 173 176 176 180 193 203 238 303 313 320 324 321 319 322 328 331 334 335 335 333 332 333 332 331 332 333 333 333 334 336 338 339 340 341 342 341 340 340 341 341 341 342 342 342 342 341 341 341 340 339 338 337
6 50 73 79 82 307 289 311 355 19 7 270 245 229 281 270 136 130 228 157 108 88 114 148 159 142 145 154 163 172 177 178 180 184 190 189 185 188 197 205 231 287 304 315 317 313 315 322 328 329 332 333 331 330 330 330 329 330 331 332 331 332 334 336 338 339 339 340 341 341 340 340 340 340 341 341 340 340 340 340 340 340 339 338 337 337
357 30 54 103 84 196 285 3 32 353 241 230 228 257 313 348 82 100 130 133 130 131 134 137 142 151 162 170 170 169 171 177 192 207 212 209 202 197 197 204 228 279 308 315 313 313 318 323 327 328 330 330 328 327 328 327 328 329 331 330 330 331 334 336 337 338 338 338 339 339 339 339 338 339 339 338 338 338 338 338 338 338 337 336 336 335
0 10 39 77 64 62 3 44 127 229 254 232 203 282 310 356 65 81 269 206 177 168 155 151 156 158 160 161 159 161 171 195 230 239 228 212 207 207 206 210 240 295 313 314 311 313 319 322 325 328 327 326 325 325 325 326 327 329 329 329 330 331 332 334 334 334 335 336 337 337 337 336 336 336 336 336 335 335 336 336 336 336 336 334 334 333
357 336 57 75 60 99 63 282 231 254 327 305 219 206 177 139 131 131 259 233 196 183 169 154 152 157 156 157 161 168 184 230 263 256 229 209 207 211 216 226 268 305 310 310 311 311 317 320 322 325 324 323 325 324 323 325 326 326 327 328 328 328 329 331 331 330 331 332 333 334 334 334 334 333 333 334 333 333 334 334 334 334 334 332 332 332
353 346 45 76 106 116 87 322 299 315 279 239 198 180 132 111 121 124 99 272 207 182 172 157 150 160 161 163 169 172 182 243 287 221 193 196 206 213 223 246 281 302 305 306 308 309 313 317 320 323 324 325 326 323 322 323 324 324 325 325 325 325 326 327 327 327 327 328 329 331 331 331 331 331 331 331 331 332 331 332 332 332 332 331 330 329
348 327 342 57 63 125 118 176 211 243 249 206 172 176 157 152 158 125 59 290 207 170 166 159 157 166 168 170 173 168 172 229 267 170 176 187 202 213 234 264 285 297 302 303 304 306 311 316 319 323 326 326 324 321 320 320 320 320 321 321 321 322 322 322 323 323 323 324 326 328 329 329 328 328 328 328 329 330 330 330 330 330 329 329 328 327
13 339 319 71 235 201 178 218 233 252 250 177 158 165 163 167 163 108 11 277 199 163 165 164 163 171 174 173 173 172 188 217 201 170 180 192 208 227 256 281 288 293 298 299 299 303 310 315 319 324 326 323 320 318 317 316 316 317 318 317 317 318 319 319 320 321 321 321 324 325 326 327 326 325 326 326 326 326 327 328 328 328 328 327 326 326
0 333 31 94 260 219 197 227 267 275 226 158 155 164 162 148 128 130 243 221 171 161 169 171 170 176 178 176 179 191 212 220 210 179 186 206 236 258 276 286 285 289 295 296 297 302 307 314 318 320 320 318 315 315 313 312 313 314 314 314 314 315 316 317 318 318 318 319 321 323 323 323 323 323 323 323 324 323 324 325 326 326 326 326 326 325
293 306 104 114 224 216 193 200 285 290 217 157 151 159 156 137 164 209 181 159 161 166 173 177 178 182 186 189 196 207 218 223 227 229 232 247 264 271 276 279 281 288 294 294 295 297 303 311 314 314 315 314 313 312 310 309 310 311 311 312 313 314 315 316 317 317 317 318 319 320 321 321 321 321 321 321 322 322 321 323 324 325 326 326 326 326
174 162 203 207 188 167 87 128 253 291 187 148 143 154 175 183 187 156 140 143 163 173 177 181 186 190 194 202 212 220 227 233 239 247 254 261 267 270 273 276 281 288 292 293 292 294 300 306 307 309 311 311 311 310 308 308 309 310 311 312 314 314 314 315 316 315 316 317 318 318 319 320 319 319 319 320 321 321 321 323 324 325 326 327 326 325
190 173 193 218 185 152 155 189 205 249 173 160 154 165 209 203 183 146 148 159 173 179 183 189 196 202 208 217 224 229 234 241 247 254 258 261 265 270 271 274 280 286 291 291 288 290 296 302 305 308 310 310 310 309 308 308 309 309 310 312 312 313 313 314 314 315 316 317 317 318 319 318 318 318 319 320 321 321 321 323 324 325 326 327 327 326
233 200 166 221 224 190 219 229 204 138 171 179 184 202 201 200 202 182 173 178 182 190 197 201 206 214 221 228 231 232 237 243 248 253 257 260 265 268 269 273 279 283 285 284 283 287 294 300 304 307 308 309 310 309 308 308 307 307 309 311 311 311 313 313 313 314 316 317 317 318 318 318 317 318 319 320 321 321 322 323 324 325 326 326 327 326
247 197 117 140 279 293 276 255 237 208 192 195 203 215 214 208 211 210 208 206 203 208 213 214 220 225 226 228 230 233 239 245 248 251 254 257 260 262 265 270 274 277 279 278 279 286 293 299 302 304 307 308 308 308 307 306 306 307 308 309 310 311 312 312 313 314 316 316 317 317 318 318 317 318 318 320 321 321 322 324 324 324 325 326 326 326
234 202 176 180 258 289 281 257 231 215 210 208 212 222 228 229 226 223 226 229 226 224 224 227 233 233 229 230 234 237 242 246 248 252 255 258 261 263 267 271 273 276 278 277 280 287 293 297 301 303 305 307 307 307 306 305 304 306 307 308 310 311 311 312 313 313 314 315 316 317 318 318 318 318 319 320 321 321 322 323 324 324 324 325 326 326
204 187 188 218 218 216 251 266 250 224 222 217 219 225 230 233 235 235 238 241 239 235 236 238 239 235 234 238 241 243 246 249 252 258 261 263 266 269 271 274 275 277 277 277 281 287 291 295 299 302 304 305 306 305 304 303 304 305 307 309 310 310 310 311 311 311 312 314 315 316 317 318 318 318 319 319 320 322 322 323 324 324 324 326 327 326
147 160 179 194 210 245 268 261 248 259 262 241 232 232 235 237 239 239 241 243 242 241 243 246 245 244 245 248 248 248 250 254 259 262 263 264 268 269 270 272 273 274 275 277 282 287 291 295 298 301 302 304 305 304 303 303 304 306 307 309 309 309 309 309 309 310 311 313 314 316 317 317 317 318 318 319 320 321 322 323 324 324 324 325 327 326
161 186 185 167 213 246 253 238 220 225 256 247 238 239 240 240 241 241 241 242 243 245 247 249 249 249 250 250 251 251 253 259 264 264 264 266 268 269 270 272 273 274 276 279 283 287 292 296 298 300 302 304 303 302 302 303 305 307 308 308 308 308 308 308 308 309 310 312 314 315 316 316 316 316 318 319 321 321 321 322 323 323 323 324 324 324
202 212 194 186 224 236 228 217 213 218 233 244 245 243 238 234 236 238 241 244 247 249 250 251 250 250 249 249 251 253 257 263 265 263 264 267 269 271 273 274 276 278 280 282 285 289 293 296 298 300 301 302 301 300 301 303 305 308 309 308 308 307 306 307 308 308 310 311 313 314 315 314 315 317 318 319 321 321 321 321 321 322 322 323 323 323